Time,TemperatureF,DewpointF,PressureIn,WindDirection,WindDirectionDegrees,WindSpeedMPH,WindSpeedGustMPH,Humidity,HourlyPrecipIn,Conditions,Clouds,dailyrainin,SoftwareType,DateUTC
2013-04-16 00:00:00,60.4,58.3,30.17,East,90,0.0,0.0,93,0.00,,---,0.16,VWS V14.01,2013-04-16 04:00:00,
2013-04-16 00:05:00,60.2,58.1,30.17,East,90,0.6,0.9,93,0.00,,---,0.00,VWS V14.01,2013-04-16 04:05:00,
2013-04-16 00:10:00,60.2,58.1,30.17,ENE,68,0.0,0.0,93,0.00,,---,0.00,VWS V14.01,2013-04-16 04:10:00,
2013-04-16 00:15:00,60.2,58.1,30.17,East,90,0.0,0.0,93,0.00,,---,0.00,VWS V14.01,2013-04-16 04:15:00,
2013-04-16 00:20:00,60.2,58.1,30.17,East,90,0.6,0.9,93,0.00,,---,0.00,VWS V14.01,2013-04-16 04:20:00,
2013-04-16 00:25:00,60.2,58.1,30.17,ESE,112,0.6,0.9,93,0.00,,---,0.00,VWS V14.01,2013-04-16 04:25:00,
2013-04-16 00:30:00,60.2,58.1,30.17,East,90,0.6,0.9,93,0.00,,---,0.00,VWS V14.01,2013-04-16 04:30:00,
2013-04-16 00:35:00,60.2,58.1,30.16,East,90,0.6,0.9,93,0.00,,---,0.00,VWS V14.01,2013-04-16 04:35:00,
2013-04-16 00:40:00,60.1,58.0,30.16,East,90,1.8,2.5,93,0.00,,---,0.00,VWS V14.01,2013-04-16 04:40:00,
2013-04-16 00:45:00,60.1,58.0,30.17,East,90,0.6,0.9,93,0.00,,---,0.00,VWS V14.01,2013-04-16 04:45:00,
2013-04-16 00:50:00,59.9,57.8,30.17,East,90,0.3,0.9,93,0.00,,---,0.00,VWS V14.01,2013-04-16 04:50:00,
2013-04-16 00:55:00,59.9,57.8,30.17,ESE,112,0.0,0.0,93,0.00,,---,0.00,VWS V14.01,2013-04-16 04:55:00,
2013-04-16 01:00:00,59.7,57.6,30.17,ESE,112,1.1,1.6,93,0.00,,---,0.00,VWS V14.01,2013-04-16 05:00:00,
2013-04-16 01:05:00,59.5,57.4,30.17,ESE,112,0.6,0.9,93,0.00,,---,0.00,VWS V14.01,2013-04-16 05:05:00,
2013-04-16 01:10:00,59.5,57.4,30.17,East,90,0.0,0.0,93,0.00,,---,0.00,VWS V14.01,2013-04-16 05:10:00,
2013-04-16 01:15:00,59.3,57.2,30.17,East,90,0.0,0.0,93,0.00,,---,0.00,VWS V14.01,2013-04-16 05:15:00,
2013-04-16 01:20:00,59.2,57.1,30.17,East,90,0.6,0.9,93,0.00,,---,0.00,VWS V14.01,2013-04-16 05:20:00,
2013-04-16 01:26:00,59.0,56.9,30.17,East,90,0.0,0.0,93,0.00,,---,0.00,VWS V14.01,2013-04-16 05:26:00,
2013-04-16 01:31:00,58.8,56.7,30.17,East,90,0.0,0.0,93,0.00,,---,0.00,VWS V14.01,2013-04-16 05:31:00,
2013-04-16 01:36:00,58.8,56.7,30.17,East,90,0.0,0.0,93,0.00,,---,0.00,VWS V14.01,2013-04-16 05:36:00,
2013-04-16 01:41:00,58.6,56.5,30.17,East,90,0.0,0.0,93,0.00,,---,0.00,VWS V14.01,2013-04-16 05:41:00,
2013-04-16 01:46:00,58.3,56.2,30.17,East,90,0.0,0.0,93,0.00,,---,0.00,VWS V14.01,2013-04-16 05:46:00,
2013-04-16 01:51:00,58.1,56.0,30.16,East,90,0.0,0.0,93,0.00,,---,0.00,VWS V14.01,2013-04-16 05:51:00,
2013-04-16 01:56:00,57.9,55.8,30.17,East,90,0.0,0.0,93,0.00,,---,0.00,VWS V14.01,2013-04-16 05:56:00,
2013-04-16 02:01:00,57.7,55.6,30.17,East,90,0.0,0.0,93,0.00,,---,0.00,VWS V14.01,2013-04-16 06:01:00,
2013-04-16 02:06:00,57.5,55.4,30.16,East,90,0.0,0.0,93,0.00,,---,0.00,VWS V14.01,2013-04-16 06:06:00,
2013-04-16 02:11:00,57.4,55.3,30.16,East,90,0.0,0.0,93,0.00,,---,0.00,VWS V14.01,2013-04-16 06:11:00,
2013-04-16 02:16:00,57.2,55.1,30.16,East,90,0.0,0.0,93,0.00,,---,0.00,VWS V14.01,2013-04-16 06:16:00,
2013-04-16 02:21:00,57.0,54.9,30.16,East,90,0.0,0.0,93,0.00,,---,0.00,VWS V14.01,2013-04-16 06:21:00,
2013-04-16 02:26:00,56.8,54.7,30.16,East,90,0.0,0.0,93,0.00,,---,0.00,VWS V14.01,2013-04-16 06:26:00,
2013-04-16 02:31:00,56.6,54.5,30.16,East,90,0.0,0.0,93,0.00,,---,0.00,VWS V14.01,2013-04-16 06:31:00,
2013-04-16 02:36:00,56.6,54.5,30.16,East,90,0.0,0.0,93,0.00,,---,0.00,VWS V14.01,2013-04-16 06:36:00,
2013-04-16 02:41:00,56.5,54.4,30.16,East,90,0.0,0.0,93,0.00,,---,0.00,VWS V14.01,2013-04-16 06:41:00,
2013-04-16 02:47:00,56.3,54.2,30.16,East,90,0.0,0.0,93,0.00,,---,0.00,VWS V14.01,2013-04-16 06:47:00,
2013-04-16 02:52:00,56.1,54.0,30.16,East,90,0.0,0.0,93,0.00,,---,0.00,VWS V14.01,2013-04-16 06:52:00,
2013-04-16 02:57:00,56.1,54.3,30.16,East,90,0.0,0.0,94,0.00,,---,0.00,VWS V14.01,2013-04-16 06:57:00,
2013-04-16 03:02:00,55.9,54.2,30.16,East,90,0.0,0.0,94,0.00,,---,0.00,VWS V14.01,2013-04-16 07:02:00,
2013-04-16 03:07:00,55.7,54.0,30.16,East,90,0.0,0.0,94,0.00,,---,0.00,VWS V14.01,2013-04-16 07:07:00,
2013-04-16 03:12:00,55.6,53.9,30.16,East,90,0.0,0.0,94,0.00,,---,0.00,VWS V14.01,2013-04-16 07:12:00,
2013-04-16 03:17:00,55.4,53.7,30.16,East,90,0.0,0.0,94,0.00,,---,0.00,VWS V14.01,2013-04-16 07:17:00,
2013-04-16 03:22:00,55.2,53.5,30.16,East,90,0.0,0.0,94,0.00,,---,0.00,VWS V14.01,2013-04-16 07:22:00,
2013-04-16 03:27:00,55.2,53.5,30.17,East,90,0.0,0.0,94,0.00,,---,0.00,VWS V14.01,2013-04-16 07:27:00,
2013-04-16 03:32:00,55.2,53.5,30.16,East,90,0.0,0.0,94,0.00,,---,0.00,VWS V14.01,2013-04-16 07:32:00,
2013-04-16 03:37:00,55.2,53.5,30.17,East,90,0.0,0.0,94,0.00,,---,0.00,VWS V14.01,2013-04-16 07:37:00,
2013-04-16 03:42:00,55.2,53.5,30.16,East,90,0.0,0.0,94,0.00,,---,0.00,VWS V14.01,2013-04-16 07:42:00,
2013-04-16 03:47:00,55.2,53.5,30.16,East,90,0.0,0.0,94,0.00,,---,0.00,VWS V14.01,2013-04-16 07:47:00,
2013-04-16 03:52:00,55.2,53.5,30.17,East,90,0.0,0.0,94,0.00,,---,0.00,VWS V14.01,2013-04-16 07:52:00,
2013-04-16 03:57:00,55.2,53.8,30.17,East,90,0.0,0.0,95,0.00,,---,0.00,VWS V14.01,2013-04-16 07:57:00,
2013-04-16 04:02:00,55.2,53.8,30.17,East,90,0.0,0.0,95,0.00,,---,0.00,VWS V14.01,2013-04-16 08:02:00,
2013-04-16 04:07:00,55.2,53.8,30.17,East,90,0.0,0.0,95,0.00,,---,0.00,VWS V14.01,2013-04-16 08:07:00,
2013-04-16 04:12:00,55.2,53.8,30.17,ESE,112,0.0,0.0,95,0.00,,---,0.00,VWS V14.01,2013-04-16 08:12:00,
2013-04-16 04:17:00,55.4,54.0,30.17,ESE,112,0.0,0.0,95,0.00,,---,0.00,VWS V14.01,2013-04-16 08:17:00,
2013-04-16 04:22:00,55.4,54.0,30.17,ESE,112,0.0,0.0,95,0.00,,---,0.00,VWS V14.01,2013-04-16 08:22:00,
2013-04-16 04:27:00,55.4,54.0,30.17,ESE,112,0.3,0.5,95,0.00,,---,0.00,VWS V14.01,2013-04-16 08:27:00,
2013-04-16 04:32:00,55.4,54.0,30.17,ESE,112,0.0,0.0,95,0.00,,---,0.00,VWS V14.01,2013-04-16 08:32:00,
2013-04-16 04:37:00,55.2,53.8,30.17,ESE,112,0.0,0.0,95,0.00,,---,0.00,VWS V14.01,2013-04-16 08:37:00,
2013-04-16 04:42:00,55.2,53.8,30.17,ESE,112,1.4,2.1,95,0.00,,---,0.00,VWS V14.01,2013-04-16 08:42:00,
2013-04-16 04:47:00,55.4,54.0,30.18,ESE,112,0.0,0.0,95,0.00,,---,0.00,VWS V14.01,2013-04-16 08:47:00,
2013-04-16 04:52:00,55.4,54.0,30.18,ESE,112,0.0,0.0,95,0.00,,---,0.00,VWS V14.01,2013-04-16 08:52:00,
2013-04-16 04:57:00,55.4,54.0,30.18,ESE,112,0.0,0.0,95,0.00,,---,0.00,VWS V14.01,2013-04-16 08:57:00,
2013-04-16 05:02:00,55.4,54.0,30.18,ESE,112,0.0,0.0,95,0.00,,---,0.00,VWS V14.01,2013-04-16 09:02:00,
2013-04-16 05:07:00,55.2,53.8,30.18,ESE,112,0.0,0.0,95,0.00,,---,0.00,VWS V14.01,2013-04-16 09:07:00,
2013-04-16 05:12:00,55.4,54.0,30.18,ESE,112,0.6,0.9,95,0.00,,---,0.00,VWS V14.01,2013-04-16 09:12:00,
2013-04-16 05:17:00,55.4,54.3,30.18,ESE,112,0.0,0.0,96,0.00,,---,0.00,VWS V14.01,2013-04-16 09:17:00,
2013-04-16 05:22:00,55.4,54.3,30.18,ESE,112,0.0,0.0,96,0.00,,---,0.00,VWS V14.01,2013-04-16 09:22:00,
2013-04-16 05:27:00,55.4,54.3,30.18,ESE,112,0.0,0.0,96,0.00,,---,0.00,VWS V14.01,2013-04-16 09:27:00,
2013-04-16 05:32:00,55.4,54.3,30.18,ESE,112,0.0,0.0,96,0.00,,---,0.00,VWS V14.01,2013-04-16 09:32:00,
2013-04-16 05:37:00,55.6,54.5,30.18,East,90,0.0,0.0,96,0.00,,---,0.00,VWS V14.01,2013-04-16 09:37:00,
2013-04-16 05:42:00,55.6,54.5,30.19,East,90,0.0,0.0,96,0.00,,---,0.00,VWS V14.01,2013-04-16 09:42:00,
2013-04-16 05:47:00,55.7,54.6,30.18,East,90,0.0,0.0,96,0.00,,---,0.00,VWS V14.01,2013-04-16 09:47:00,
2013-04-16 05:52:00,55.7,54.6,30.18,East,90,4.3,6.2,96,0.00,,---,0.00,VWS V14.01,2013-04-16 09:52:00,
2013-04-16 05:57:00,55.9,54.8,30.19,East,90,0.0,0.0,96,0.00,,---,0.00,VWS V14.01,2013-04-16 09:57:00,
2013-04-16 06:02:00,55.9,54.8,30.19,East,90,0.0,0.0,96,0.00,,---,0.00,VWS V14.01,2013-04-16 10:02:00,
2013-04-16 06:07:00,56.1,55.0,30.19,East,90,0.0,0.0,96,0.00,,---,0.00,VWS V14.01,2013-04-16 10:07:00,
2013-04-16 06:12:00,56.3,55.2,30.19,East,90,0.0,2.1,96,0.00,,---,0.00,VWS V14.01,2013-04-16 10:12:00,
2013-04-16 06:17:00,56.3,55.2,30.19,East,90,0.0,0.0,96,0.00,,---,0.00,VWS V14.01,2013-04-16 10:17:00,
2013-04-16 06:22:00,56.3,55.2,30.19,East,90,0.0,0.0,96,0.00,,---,0.00,VWS V14.01,2013-04-16 10:22:00,
2013-04-16 06:27:00,56.3,55.2,30.20,East,90,0.0,0.0,96,0.00,,---,0.00,VWS V14.01,2013-04-16 10:27:00,
2013-04-16 06:33:00,56.3,55.2,30.20,East,90,0.0,0.0,96,0.00,,---,0.00,VWS V14.01,2013-04-16 10:33:00,
2013-04-16 06:38:00,56.3,55.2,30.20,East,90,0.0,0.0,96,0.00,,---,0.00,VWS V14.01,2013-04-16 10:38:00,
2013-04-16 06:43:00,56.1,55.0,30.21,East,90,0.0,0.0,96,0.00,,---,0.00,VWS V14.01,2013-04-16 10:43:00,
2013-04-16 06:48:00,56.1,55.0,30.21,East,90,0.0,0.0,96,0.00,,---,0.00,VWS V14.01,2013-04-16 10:48:00,
2013-04-16 06:53:00,56.3,55.2,30.21,East,90,0.0,0.0,96,0.00,,---,0.00,VWS V14.01,2013-04-16 10:53:00,
2013-04-16 06:58:00,56.3,55.2,30.21,East,90,0.0,0.0,96,0.00,,---,0.00,VWS V14.01,2013-04-16 10:58:00,
2013-04-16 07:03:00,56.3,55.2,30.21,East,90,0.0,0.0,96,0.00,,---,0.00,VWS V14.01,2013-04-16 11:03:00,
2013-04-16 07:08:00,56.3,55.2,30.21,East,90,0.0,0.0,96,0.00,,---,0.00,VWS V14.01,2013-04-16 11:08:00,
2013-04-16 07:13:00,56.5,55.3,30.21,NNE,22,1.1,1.6,96,0.00,,---,0.00,VWS V14.01,2013-04-16 11:13:00,
2013-04-16 07:18:00,56.5,55.3,30.21,NNE,22,0.0,0.0,96,0.00,,---,0.00,VWS V14.01,2013-04-16 11:18:00,
2013-04-16 07:23:00,56.6,55.4,30.21,NNE,22,0.0,0.0,96,0.00,,---,0.00,VWS V14.01,2013-04-16 11:23:00,
2013-04-16 07:28:00,56.6,55.4,30.21,NNE,22,0.0,0.0,96,0.00,,---,0.00,VWS V14.01,2013-04-16 11:28:00,
2013-04-16 07:33:00,56.6,55.4,30.22,NNE,22,0.0,0.0,96,0.00,,---,0.00,VWS V14.01,2013-04-16 11:33:00,
2013-04-16 07:38:00,56.6,55.4,30.22,NNE,22,0.0,0.0,96,0.00,,---,0.00,VWS V14.01,2013-04-16 11:38:00,
2013-04-16 07:43:00,56.6,55.4,30.23,NNE,22,0.3,0.5,96,0.00,,---,0.00,VWS V14.01,2013-04-16 11:43:00,
2013-04-16 07:48:00,57.0,55.8,30.23,NE,45,0.6,0.9,96,0.00,,---,0.00,VWS V14.01,2013-04-16 11:48:00,
2013-04-16 07:53:00,57.0,55.8,30.22,NE,45,0.0,0.9,96,0.00,,---,0.00,VWS V14.01,2013-04-16 11:53:00,
2013-04-16 07:58:00,57.0,55.8,30.23,NE,45,0.0,0.0,96,0.00,,---,0.00,VWS V14.01,2013-04-16 11:58:00,
2013-04-16 08:03:00,57.4,56.2,30.23,NNE,22,0.0,0.0,96,0.00,,---,0.00,VWS V14.01,2013-04-16 12:03:00,
2013-04-16 08:08:00,57.4,56.2,30.23,East,90,1.4,2.1,96,0.00,,---,0.00,VWS V14.01,2013-04-16 12:08:00,
2013-04-16 08:13:00,57.7,56.5,30.23,NNE,22,0.6,3.0,96,0.00,,---,0.00,VWS V14.01,2013-04-16 12:13:00,
2013-04-16 08:18:00,57.9,57.0,30.23,ENE,68,2.1,3.0,97,0.00,,---,0.00,VWS V14.01,2013-04-16 12:18:00,
2013-04-16 08:23:00,58.1,56.9,30.23,NNE,22,1.8,2.5,96,0.00,,---,0.00,VWS V14.01,2013-04-16 12:23:00,
2013-04-16 08:28:00,58.3,57.1,30.24,East,90,6.1,8.7,96,0.00,,---,0.00,VWS V14.01,2013-04-16 12:28:00,
2013-04-16 08:33:00,58.3,57.1,30.23,NE,45,2.1,8.7,96,0.00,,---,0.00,VWS V14.01,2013-04-16 12:33:00,
2013-04-16 08:38:00,58.4,57.5,30.23,NNE,22,0.6,2.1,97,0.00,,---,0.00,VWS V14.01,2013-04-16 12:38:00,
2013-04-16 08:43:00,58.6,57.4,30.23,NE,45,2.1,3.0,96,0.00,,---,0.00,VWS V14.01,2013-04-16 12:43:00,
2013-04-16 08:48:00,59.0,57.8,30.23,East,90,0.3,3.0,96,0.00,,---,0.00,VWS V14.01,2013-04-16 12:48:00,
2013-04-16 08:53:00,59.3,58.4,30.23,NE,45,0.6,0.9,97,0.00,,---,0.00,VWS V14.01,2013-04-16 12:53:00,
2013-04-16 08:58:00,59.7,58.8,30.23,NE,45,0.3,2.1,97,0.00,,---,0.00,VWS V14.01,2013-04-16 12:58:00,
2013-04-16 09:03:00,60.1,59.2,30.24,NNE,22,1.1,1.6,97,0.00,,---,0.00,VWS V14.01,2013-04-16 13:03:00,
2013-04-16 09:08:00,60.2,59.3,30.23,East,90,1.1,1.6,97,0.00,,---,0.00,VWS V14.01,2013-04-16 13:08:00,
2013-04-16 09:13:00,60.8,59.9,30.24,NE,45,0.3,0.9,97,0.00,,---,0.00,VWS V14.01,2013-04-16 13:13:00,
2013-04-16 09:18:00,61.3,60.4,30.24,NNE,22,0.0,0.5,97,0.00,,---,0.00,VWS V14.01,2013-04-16 13:18:00,
2013-04-16 09:23:00,61.7,60.8,30.23,ENE,68,1.4,2.1,97,0.00,,---,0.00,VWS V14.01,2013-04-16 13:23:00,
2013-04-16 09:28:00,63.1,61.8,30.24,NNE,22,1.8,2.5,96,0.00,,---,0.00,VWS V14.01,2013-04-16 13:28:00,
2013-04-16 09:33:00,63.3,62.0,30.24,NNE,22,0.6,0.9,96,0.00,,---,0.00,VWS V14.01,2013-04-16 13:33:00,
2013-04-16 09:38:00,64.8,63.0,30.23,NNE,22,1.1,1.6,94,0.00,,---,0.00,VWS V14.01,2013-04-16 13:38:00,
2013-04-16 09:43:00,65.0,63.2,30.23,North,0,0.6,0.9,94,0.00,,---,0.00,VWS V14.01,2013-04-16 13:43:00,
2013-04-16 09:48:00,65.9,63.5,30.24,North,0,1.4,2.5,92,0.00,,---,0.00,VWS V14.01,2013-04-16 13:48:00,
2013-04-16 09:53:00,66.3,63.5,30.24,North,0,1.1,1.6,91,0.00,,---,0.00,VWS V14.01,2013-04-16 13:53:00,
2013-04-16 09:58:00,67.0,64.2,30.24,ENE,68,5.8,8.3,91,0.00,,---,0.00,VWS V14.01,2013-04-16 13:58:00,
2013-04-16 10:03:00,67.7,64.6,30.24,East,90,3.2,8.3,90,0.00,,---,0.00,VWS V14.01,2013-04-16 14:03:00,
2013-04-16 10:08:00,68.2,64.7,30.24,East,90,1.4,4.6,89,0.00,,---,0.00,VWS V14.01,2013-04-16 14:08:00,
2013-04-16 10:14:00,68.4,64.2,30.24,SSE,158,5.4,8.7,87,0.00,,---,0.00,VWS V14.01,2013-04-16 14:14:00,
2013-04-16 10:19:00,68.1,63.9,30.25,East,90,5.8,8.3,87,0.00,,---,0.00,VWS V14.01,2013-04-16 14:19:00,
2013-04-16 10:24:00,68.1,63.9,30.25,ENE,68,2.9,5.1,87,0.00,,---,0.00,VWS V14.01,2013-04-16 14:24:00,
2013-04-16 10:29:00,68.8,64.3,30.25,SE,135,3.5,6.7,85,0.00,,---,0.00,VWS V14.01,2013-04-16 14:29:00,
2013-04-16 10:34:00,69.1,64.6,30.25,North,0,2.1,5.8,85,0.00,,---,0.00,VWS V14.01,2013-04-16 14:34:00,
2013-04-16 10:39:00,69.5,64.6,30.26,SE,135,2.9,4.1,84,0.00,,---,0.00,VWS V14.01,2013-04-16 14:39:00,
2013-04-16 10:44:00,70.2,64.9,30.26,ESE,112,2.9,4.1,83,0.00,,---,0.00,VWS V14.01,2013-04-16 14:44:00,
2013-04-16 10:49:00,70.2,64.6,30.25,East,90,2.1,3.7,82,0.00,,---,0.00,VWS V14.01,2013-04-16 14:49:00,
2013-04-16 10:54:00,70.2,64.6,30.26,NNE,22,1.4,3.0,82,0.00,,---,0.00,VWS V14.01,2013-04-16 14:54:00,
2013-04-16 10:59:00,70.6,64.2,30.26,NNE,22,1.8,2.5,80,0.00,,---,0.00,VWS V14.01,2013-04-16 14:59:00,
2013-04-16 11:04:00,71.7,66.0,30.25,NE,45,1.1,2.5,82,0.00,,---,0.00,VWS V14.01,2013-04-16 15:04:00,
2013-04-16 11:09:00,72.6,65.8,30.25,WSW,248,2.1,4.1,79,0.00,,---,0.00,VWS V14.01,2013-04-16 15:09:00,
2013-04-16 11:14:00,72.7,65.1,30.25,SSE,158,2.9,4.1,77,0.00,,---,0.00,VWS V14.01,2013-04-16 15:14:00,
2013-04-16 11:19:00,73.1,65.5,30.25,South,180,3.2,4.6,77,0.00,,---,0.00,VWS V14.01,2013-04-16 15:19:00,
2013-04-16 11:24:00,73.5,65.5,30.25,SE,135,5.4,8.3,76,0.00,,---,0.00,VWS V14.01,2013-04-16 15:24:00,
2013-04-16 11:29:00,73.5,64.3,30.25,SE,135,6.4,12.4,73,0.00,,---,0.00,VWS V14.01,2013-04-16 15:29:00,
2013-04-16 11:34:00,73.3,64.9,30.25,ESE,112,5.4,8.7,75,0.00,,---,0.00,VWS V14.01,2013-04-16 15:34:00,
2013-04-16 11:39:00,73.1,64.0,30.25,East,90,4.0,5.8,73,0.00,,---,0.00,VWS V14.01,2013-04-16 15:39:00,
2013-04-16 11:44:00,72.9,64.6,30.25,SE,135,2.6,9.9,75,0.00,,---,0.00,VWS V14.01,2013-04-16 15:44:00,
2013-04-16 11:49:00,72.9,64.2,30.25,SE,135,2.6,3.7,74,0.00,,---,0.00,VWS V14.01,2013-04-16 15:49:00,
2013-04-16 11:54:00,73.6,64.8,30.25,SE,135,1.1,1.6,74,0.00,,---,0.00,VWS V14.01,2013-04-16 15:54:00,
2013-04-16 11:59:00,74.2,65.0,30.25,ESE,112,3.5,5.8,73,0.00,,---,0.00,VWS V14.01,2013-04-16 15:59:00,
2013-04-16 12:04:00,74.4,65.3,30.25,North,0,1.8,5.1,73,0.00,,---,0.00,VWS V14.01,2013-04-16 16:04:00,
2013-04-16 12:09:00,74.8,64.4,30.24,ESE,112,2.9,4.1,70,0.00,,---,0.00,VWS V14.01,2013-04-16 16:09:00,
2013-04-16 12:14:00,74.8,64.8,30.24,ESE,112,2.6,3.7,71,0.00,,---,0.00,VWS V14.01,2013-04-16 16:14:00,
2013-04-16 12:19:00,75.0,65.4,30.24,SSE,158,4.6,6.7,72,0.00,,---,0.00,VWS V14.01,2013-04-16 16:19:00,
2013-04-16 12:24:00,75.2,64.4,30.24,WNW,292,2.1,3.0,69,0.00,,---,0.00,VWS V14.01,2013-04-16 16:24:00,
2013-04-16 12:29:00,75.2,65.2,30.24,ESE,112,2.9,4.1,71,0.00,,---,0.00,VWS V14.01,2013-04-16 16:29:00,
2013-04-16 12:34:00,75.0,65.0,30.24,ENE,68,2.1,3.0,71,0.00,,---,0.00,VWS V14.01,2013-04-16 16:34:00,
2013-04-16 12:39:00,75.0,64.6,30.24,SE,135,2.9,4.1,70,0.00,,---,0.00,VWS V14.01,2013-04-16 16:39:00,
2013-04-16 12:44:00,74.8,64.4,30.24,SE,135,1.8,4.1,70,0.00,,---,0.00,VWS V14.01,2013-04-16 16:44:00,
2013-04-16 12:49:00,74.4,64.5,30.24,SE,135,4.0,8.7,71,0.00,,---,0.00,VWS V14.01,2013-04-16 16:49:00,
2013-04-16 12:54:00,74.3,63.5,30.24,South,180,0.3,8.7,69,0.00,,---,0.00,VWS V14.01,2013-04-16 16:54:00,
2013-04-16 12:59:00,74.2,63.8,30.24,SW,225,0.6,0.9,70,0.00,,---,0.00,VWS V14.01,2013-04-16 16:59:00,
2013-04-16 13:04:00,74.2,64.2,30.24,ESE,112,5.0,7.1,71,0.00,,---,0.00,VWS V14.01,2013-04-16 17:04:00,
2013-04-16 13:09:00,74.4,64.1,30.24,SSE,158,1.4,9.9,70,0.00,,---,0.00,VWS V14.01,2013-04-16 17:09:00,
2013-04-16 13:14:00,74.7,64.7,30.24,SE,135,5.0,13.8,71,0.00,,---,0.00,VWS V14.01,2013-04-16 17:14:00,
2013-04-16 13:19:00,74.8,64.8,30.23,ESE,112,1.4,10.8,71,0.00,,---,0.00,VWS V14.01,2013-04-16 17:19:00,
2013-04-16 13:24:00,75.3,65.7,30.23,ESE,112,9.6,13.8,72,0.00,,---,0.00,VWS V14.01,2013-04-16 17:24:00,
2013-04-16 13:29:00,75.3,64.5,30.23,WSW,248,1.4,11.7,69,0.00,,---,0.00,VWS V14.01,2013-04-16 17:29:00,
2013-04-16 13:34:00,75.0,64.2,30.23,SSE,158,2.1,9.2,69,0.00,,---,0.00,VWS V14.01,2013-04-16 17:34:00,
2013-04-16 13:39:00,74.8,64.0,30.23,SE,135,1.8,5.8,69,0.00,,---,0.00,VWS V14.01,2013-04-16 17:39:00,
2013-04-16 13:45:00,75.0,64.2,30.23,ENE,68,5.0,7.1,69,0.00,,---,0.00,VWS V14.01,2013-04-16 17:45:00,
2013-04-16 13:50:00,75.2,64.0,30.23,SE,135,2.6,7.1,68,0.00,,---,0.00,VWS V14.01,2013-04-16 17:50:00,
2013-04-16 13:55:00,75.7,64.9,30.23,ESE,112,6.4,9.2,69,0.00,,---,0.00,VWS V14.01,2013-04-16 17:55:00,
2013-04-16 14:00:00,75.9,64.6,30.23,SW,225,2.9,9.2,68,0.00,,---,0.00,VWS V14.01,2013-04-16 18:00:00,
2013-04-16 14:05:00,76.8,64.6,30.23,South,180,2.1,19.1,66,0.00,,---,0.00,VWS V14.01,2013-04-16 18:05:00,
2013-04-16 14:10:00,76.8,64.6,30.23,SW,225,1.8,3.0,66,0.00,,---,0.00,VWS V14.01,2013-04-16 18:10:00,
2013-04-16 14:15:00,76.8,64.6,30.22,SE,135,5.4,9.2,66,0.00,,---,0.00,VWS V14.01,2013-04-16 18:15:00,
2013-04-16 14:20:00,76.8,64.1,30.22,SE,135,4.6,7.1,65,0.00,,---,0.00,VWS V14.01,2013-04-16 18:20:00,
2013-04-16 14:25:00,76.4,64.2,30.22,ESE,112,2.6,9.2,66,0.00,,---,0.00,VWS V14.01,2013-04-16 18:25:00,
2013-04-16 14:30:00,76.2,64.0,30.22,SSW,202,1.1,5.1,66,0.00,,---,0.00,VWS V14.01,2013-04-16 18:30:00,
2013-04-16 14:35:00,75.9,64.2,30.22,East,90,2.6,3.7,67,0.00,,---,0.00,VWS V14.01,2013-04-16 18:35:00,
2013-04-16 14:40:00,75.5,64.2,30.22,WSW,248,0.3,3.7,68,0.00,,---,0.00,VWS V14.01,2013-04-16 18:40:00,
2013-04-16 14:45:00,75.5,64.2,30.22,SE,135,1.8,7.8,68,0.00,,---,0.00,VWS V14.01,2013-04-16 18:45:00,
2013-04-16 14:50:00,75.2,63.5,30.22,SE,135,5.0,8.7,67,0.00,,---,0.00,VWS V14.01,2013-04-16 18:50:00,
2013-04-16 14:55:00,75.2,64.0,30.22,ENE,68,2.1,7.1,68,0.00,,---,0.00,VWS V14.01,2013-04-16 18:55:00,
2013-04-16 15:00:00,75.7,64.4,30.22,SSE,158,8.2,11.7,68,0.00,,---,0.00,VWS V14.01,2013-04-16 19:00:00,
2013-04-16 15:05:00,75.9,64.2,30.21,ESE,112,5.4,11.7,67,0.00,,---,0.00,VWS V14.01,2013-04-16 19:05:00,
2013-04-16 15:10:00,75.5,64.2,30.22,East,90,4.0,7.8,68,0.00,,---,0.00,VWS V14.01,2013-04-16 19:10:00,
2013-04-16 15:15:00,75.2,64.4,30.21,NE,45,2.9,5.8,69,0.00,,---,0.00,VWS V14.01,2013-04-16 19:15:00,
2013-04-16 15:20:00,74.8,64.0,30.21,East,90,6.1,8.7,69,0.00,,---,0.00,VWS V14.01,2013-04-16 19:20:00,
2013-04-16 15:25:00,74.4,64.1,30.21,ENE,68,2.9,8.7,70,0.00,,---,0.00,VWS V14.01,2013-04-16 19:25:00,
2013-04-16 15:30:00,74.2,64.2,30.21,ESE,112,1.8,4.1,71,0.00,,---,0.00,VWS V14.01,2013-04-16 19:30:00,
2013-04-16 15:35:00,74.2,64.2,30.21,ENE,68,1.1,5.8,71,0.00,,---,0.00,VWS V14.01,2013-04-16 19:35:00,
2013-04-16 15:40:00,74.2,64.2,30.21,East,90,5.0,7.1,71,0.00,,---,0.00,VWS V14.01,2013-04-16 19:40:00,
2013-04-16 15:45:00,73.9,64.0,30.21,SSE,158,2.9,8.3,71,0.00,,---,0.00,VWS V14.01,2013-04-16 19:45:00,
2013-04-16 15:50:00,73.9,64.0,30.21,East,90,2.9,4.1,71,0.00,,---,0.00,VWS V14.01,2013-04-16 19:50:00,
2013-04-16 15:55:00,74.2,64.2,30.20,East,90,1.4,5.1,71,0.00,,---,0.00,VWS V14.01,2013-04-16 19:55:00,
2013-04-16 16:00:00,74.4,64.5,30.20,SE,135,4.6,9.2,71,0.00,,---,0.00,VWS V14.01,2013-04-16 20:00:00,
2013-04-16 16:05:00,75.0,64.2,30.20,ESE,112,4.3,6.7,69,0.00,,---,0.00,VWS V14.01,2013-04-16 20:05:00,
2013-04-16 16:10:00,75.9,64.6,30.20,East,90,2.6,10.8,68,0.00,,---,0.00,VWS V14.01,2013-04-16 20:10:00,
2013-04-16 16:15:00,76.2,64.9,30.19,East,90,4.0,9.2,68,0.00,,---,0.00,VWS V14.01,2013-04-16 20:15:00,
2013-04-16 16:20:00,76.2,64.5,30.20,NE,45,4.0,5.8,67,0.00,,---,0.00,VWS V14.01,2013-04-16 20:20:00,
2013-04-16 16:25:00,76.6,64.4,30.20,SE,135,3.5,8.3,66,0.00,,---,0.00,VWS V14.01,2013-04-16 20:25:00,
2013-04-16 16:30:00,77.0,64.8,30.19,SE,135,2.6,5.1,66,0.00,,---,0.00,VWS V14.01,2013-04-16 20:30:00,
2013-04-16 16:35:00,76.8,64.1,30.20,SE,135,5.4,7.8,65,0.00,,---,0.00,VWS V14.01,2013-04-16 20:35:00,
2013-04-16 16:40:00,76.4,64.2,30.20,SE,135,1.4,2.1,66,0.00,,---,0.00,VWS V14.01,2013-04-16 20:40:00,
2013-04-16 16:45:00,76.1,63.5,30.19,SE,135,4.3,6.2,65,0.00,,---,0.00,VWS V14.01,2013-04-16 20:45:00,
2013-04-16 16:50:00,75.7,63.5,30.19,SSE,158,1.8,2.5,66,0.00,,---,0.00,VWS V14.01,2013-04-16 20:50:00,
2013-04-16 16:55:00,75.5,63.8,30.19,SW,225,1.8,2.5,67,0.00,,---,0.00,VWS V14.01,2013-04-16 20:55:00,
2013-04-16 17:00:00,75.3,63.6,30.19,SE,135,6.9,14.9,67,0.00,,---,0.00,VWS V14.01,2013-04-16 21:00:00,
2013-04-16 17:05:00,75.2,63.5,30.19,East,90,6.9,9.9,67,0.00,,---,0.00,VWS V14.01,2013-04-16 21:05:00,
2013-04-16 17:10:00,74.8,63.6,30.20,SE,135,8.6,12.4,68,0.00,,---,0.00,VWS V14.01,2013-04-16 21:10:00,
2013-04-16 17:15:00,74.7,63.0,30.19,SW,225,10.1,14.5,67,0.00,,---,0.00,VWS V14.01,2013-04-16 21:15:00,
2013-04-16 17:20:00,74.4,63.2,30.19,SSE,158,5.4,14.5,68,0.00,,---,0.00,VWS V14.01,2013-04-16 21:20:00,
2013-04-16 17:25:00,74.3,63.1,30.19,SSE,158,6.4,9.2,68,0.00,,---,0.00,VWS V14.01,2013-04-16 21:25:00,
2013-04-16 17:30:00,74.2,62.9,30.19,SE,135,6.4,9.2,68,0.00,,---,0.00,VWS V14.01,2013-04-16 21:30:00,
2013-04-16 17:35:00,74.2,63.3,30.19,SE,135,6.4,9.2,69,0.00,,---,0.00,VWS V14.01,2013-04-16 21:35:00,
2013-04-16 17:40:00,73.9,62.7,30.20,SE,135,2.6,3.7,68,0.00,,---,0.00,VWS V14.01,2013-04-16 21:40:00,
2013-04-16 17:45:00,73.9,62.7,30.20,SE,135,5.4,7.8,68,0.00,,---,0.00,VWS V14.01,2013-04-16 21:45:00,
2013-04-16 17:50:00,73.8,62.5,30.20,SE,135,1.8,2.5,68,0.00,,---,0.00,VWS V14.01,2013-04-16 21:50:00,
2013-04-16 17:55:00,73.5,62.2,30.20,ESE,112,7.2,13.3,68,0.00,,---,0.00,VWS V14.01,2013-04-16 21:55:00,
2013-04-16 18:00:00,73.1,61.9,30.20,SE,135,1.8,7.8,68,0.00,,---,0.00,VWS V14.01,2013-04-16 22:00:00,
2013-04-16 18:05:00,73.1,61.9,30.20,SSE,158,3.2,4.6,68,0.00,,---,0.00,VWS V14.01,2013-04-16 22:05:00,
2013-04-16 18:10:00,72.9,62.1,30.20,ESE,112,5.0,7.1,69,0.00,,---,0.00,VWS V14.01,2013-04-16 22:10:00,
2013-04-16 18:15:00,72.7,61.9,30.20,SE,135,6.4,9.2,69,0.00,,---,0.00,VWS V14.01,2013-04-16 22:15:00,
2013-04-16 18:20:00,72.4,62.1,30.20,SSE,158,8.6,12.4,70,0.00,,---,0.00,VWS V14.01,2013-04-16 22:20:00,
2013-04-16 18:25:00,72.2,61.9,30.20,ESE,112,7.5,10.8,70,0.00,,---,0.00,VWS V14.01,2013-04-16 22:25:00,
2013-04-16 18:30:00,72.0,62.1,30.20,SE,135,1.8,2.5,71,0.00,,---,0.00,VWS V14.01,2013-04-16 22:30:00,
2013-04-16 18:35:00,71.7,61.8,30.20,SSE,158,5.4,7.8,71,0.00,,---,0.00,VWS V14.01,2013-04-16 22:35:00,
2013-04-16 18:40:00,71.7,61.8,30.20,ESE,112,2.6,3.7,71,0.00,,---,0.00,VWS V14.01,2013-04-16 22:40:00,
2013-04-16 18:45:00,71.5,62.0,30.20,SSE,158,4.6,6.7,72,0.00,,---,0.00,VWS V14.01,2013-04-16 22:45:00,
2013-04-16 18:50:00,71.3,61.8,30.20,ESE,112,4.3,6.2,72,0.00,,---,0.00,VWS V14.01,2013-04-16 22:50:00,
2013-04-16 18:55:00,70.9,61.5,30.20,East,90,4.0,5.8,72,0.00,,---,0.00,VWS V14.01,2013-04-16 22:55:00,
2013-04-16 19:00:00,70.6,61.2,30.20,SW,225,1.4,3.0,72,0.00,,---,0.00,VWS V14.01,2013-04-16 23:00:00,
2013-04-16 19:05:00,70.2,61.2,30.20,SE,135,3.2,4.6,73,0.00,,---,0.00,VWS V14.01,2013-04-16 23:05:00,
2013-04-16 19:10:00,70.0,61.4,30.20,SE,135,1.1,1.6,74,0.00,,---,0.00,VWS V14.01,2013-04-16 23:10:00,
2013-04-16 19:15:00,69.7,61.1,30.20,SSE,158,2.9,4.1,74,0.00,,---,0.00,VWS V14.01,2013-04-16 23:15:00,
2013-04-16 19:20:00,69.3,61.1,30.20,SE,135,1.1,4.1,75,0.00,,---,0.00,VWS V14.01,2013-04-16 23:20:00,
2013-04-16 19:25:00,69.1,60.9,30.20,ESE,112,1.8,2.5,75,0.00,,---,0.00,VWS V14.01,2013-04-16 23:25:00,
2013-04-16 19:31:00,68.8,61.0,30.20,SSE,158,1.8,2.5,76,0.00,,---,0.00,VWS V14.01,2013-04-16 23:31:00,
2013-04-16 19:35:00,68.6,60.8,30.21,SE,135,1.1,1.6,76,0.00,,---,0.00,VWS V14.01,2013-04-16 23:35:00,
2013-04-16 19:40:00,68.2,60.5,30.20,SE,135,1.4,3.0,76,0.00,,---,0.00,VWS V14.01,2013-04-16 23:40:00,
2013-04-16 19:46:00,67.9,60.2,30.20,SE,135,2.9,4.1,76,0.00,,---,0.00,VWS V14.01,2013-04-16 23:46:00,
2013-04-16 19:51:00,67.7,60.3,30.21,ESE,112,2.1,3.0,77,0.00,,---,0.00,VWS V14.01,2013-04-16 23:51:00,
2013-04-16 19:56:00,67.3,60.0,30.21,ESE,112,0.0,0.0,77,0.00,,---,0.00,VWS V14.01,2013-04-16 23:56:00,
2013-04-16 20:01:00,67.0,60.0,30.21,ESE,112,0.3,0.5,78,0.00,,---,0.00,VWS V14.01,2013-04-17 00:01:00,
2013-04-16 20:06:00,66.6,60.0,30.21,SE,135,0.3,0.5,79,0.00,,---,0.00,VWS V14.01,2013-04-17 00:06:00,
2013-04-16 20:11:00,66.4,59.8,30.21,ESE,112,0.3,0.5,79,0.00,,---,0.00,VWS V14.01,2013-04-17 00:11:00,
2013-04-16 20:16:00,66.1,59.9,30.21,SE,135,1.8,2.5,80,0.00,,---,0.00,VWS V14.01,2013-04-17 00:16:00,
2013-04-16 20:22:00,65.9,59.7,30.21,SE,135,1.8,2.5,80,0.00,,---,0.00,VWS V14.01,2013-04-17 00:22:00,
2013-04-16 20:27:00,65.5,59.7,30.21,SSE,158,1.1,1.6,81,0.00,,---,0.00,VWS V14.01,2013-04-17 00:27:00,
2013-04-16 20:32:00,65.2,59.4,30.22,SE,135,0.6,0.9,81,0.00,,---,0.00,VWS V14.01,2013-04-17 00:32:00,
2013-04-16 20:37:00,65.0,59.2,30.22,SE,135,0.0,0.0,81,0.00,,---,0.00,VWS V14.01,2013-04-17 00:37:00,
2013-04-16 20:42:00,64.8,59.0,30.22,SSE,158,0.0,0.0,81,0.00,,---,0.00,VWS V14.01,2013-04-17 00:42:00,
2013-04-16 20:47:00,64.6,59.1,30.22,SSE,158,0.0,0.0,82,0.00,,---,0.00,VWS V14.01,2013-04-17 00:47:00,
2013-04-16 20:52:00,64.2,58.7,30.22,SSE,158,0.0,0.0,82,0.00,,---,0.00,VWS V14.01,2013-04-17 00:52:00,
2013-04-16 20:57:00,63.8,58.3,30.22,SSE,158,0.0,0.0,82,0.00,,---,0.00,VWS V14.01,2013-04-17 00:57:00,
2013-04-16 21:02:00,63.7,58.5,30.22,SSE,158,0.0,0.0,83,0.00,,---,0.00,VWS V14.01,2013-04-17 01:02:00,
2013-04-16 21:07:00,63.1,58.0,30.22,SSE,158,0.0,0.0,83,0.00,,---,0.00,VWS V14.01,2013-04-17 01:07:00,
2013-04-16 21:12:00,62.9,57.8,30.22,SSE,158,0.3,0.5,83,0.00,,---,0.00,VWS V14.01,2013-04-17 01:12:00,
2013-04-16 21:17:00,62.8,57.7,30.23,SSE,158,0.0,0.0,83,0.00,,---,0.00,VWS V14.01,2013-04-17 01:17:00,
2013-04-16 21:22:00,62.2,57.1,30.23,SSE,158,0.0,0.0,83,0.00,,---,0.00,VWS V14.01,2013-04-17 01:22:00,
2013-04-16 21:27:00,62.0,57.2,30.23,SSE,158,0.0,0.0,84,0.00,,---,0.00,VWS V14.01,2013-04-17 01:27:00,
2013-04-16 21:32:00,61.7,57.3,30.22,SSE,158,0.0,0.0,85,0.00,,---,0.00,VWS V14.01,2013-04-17 01:32:00,
2013-04-16 21:37:00,61.3,56.9,30.22,SSE,158,0.0,0.0,85,0.00,,---,0.00,VWS V14.01,2013-04-17 01:37:00,
2013-04-16 21:42:00,61.1,56.7,30.23,SSE,158,0.0,0.0,85,0.00,,---,0.00,VWS V14.01,2013-04-17 01:42:00,
2013-04-16 21:47:00,61.0,56.6,30.23,SSE,158,0.0,0.0,85,0.00,,---,0.00,VWS V14.01,2013-04-17 01:47:00,
2013-04-16 21:52:00,60.8,56.8,30.23,SSE,158,0.0,0.0,87,0.00,,---,0.00,VWS V14.01,2013-04-17 01:52:00,
2013-04-16 21:57:00,60.6,56.5,30.23,SSE,158,0.6,0.9,87,0.00,,---,0.00,VWS V14.01,2013-04-17 01:57:00,
2013-04-16 22:02:00,60.2,56.5,30.23,SSE,158,0.0,0.0,88,0.00,,---,0.00,VWS V14.01,2013-04-17 02:02:00,
2013-04-16 22:07:00,60.2,56.5,30.23,SSE,158,0.0,0.0,88,0.00,,---,0.00,VWS V14.01,2013-04-17 02:07:00,
2013-04-16 22:12:00,59.9,56.2,30.23,SSE,158,0.0,0.5,88,0.00,,---,0.00,VWS V14.01,2013-04-17 02:12:00,
2013-04-16 22:17:00,59.7,56.0,30.23,SSE,158,0.0,0.0,88,0.00,,---,0.00,VWS V14.01,2013-04-17 02:17:00,
2013-04-16 22:22:00,59.5,55.8,30.23,SSE,158,0.0,0.0,88,0.00,,---,0.00,VWS V14.01,2013-04-17 02:22:00,
2013-04-16 22:27:00,59.3,55.6,30.23,SSE,158,0.0,0.0,88,0.00,,---,0.00,VWS V14.01,2013-04-17 02:27:00,
2013-04-16 22:32:00,59.0,56.0,30.23,SSE,158,0.0,0.0,90,0.00,,---,0.00,VWS V14.01,2013-04-17 02:32:00,
2013-04-16 22:37:00,58.8,55.8,30.23,SSE,158,0.0,0.0,90,0.00,,---,0.00,VWS V14.01,2013-04-17 02:37:00,
2013-04-16 22:42:00,58.6,55.6,30.22,SSE,158,0.0,0.0,90,0.00,,---,0.00,VWS V14.01,2013-04-17 02:42:00,
2013-04-16 22:47:00,58.4,55.4,30.22,SSE,158,0.0,0.0,90,0.00,,---,0.00,VWS V14.01,2013-04-17 02:47:00,
2013-04-16 22:52:00,58.4,55.4,30.23,SSE,158,0.0,0.0,90,0.00,,---,0.00,VWS V14.01,2013-04-17 02:52:00,
2013-04-16 22:57:00,58.1,55.1,30.23,SSE,158,0.0,0.0,90,0.00,,---,0.00,VWS V14.01,2013-04-17 02:57:00,
2013-04-16 23:02:00,58.1,55.1,30.22,SSE,158,0.0,0.0,90,0.00,,---,0.00,VWS V14.01,2013-04-17 03:02:00,
2013-04-16 23:07:00,57.7,54.7,30.22,SSE,158,0.0,0.0,90,0.00,,---,0.00,VWS V14.01,2013-04-17 03:07:00,
2013-04-16 23:12:00,57.7,54.7,30.22,SSE,158,0.0,0.0,90,0.00,,---,0.00,VWS V14.01,2013-04-17 03:12:00,
2013-04-16 23:17:00,57.4,54.4,30.22,SSE,158,0.0,0.0,90,0.00,,---,0.00,VWS V14.01,2013-04-17 03:17:00,
2013-04-16 23:22:00,57.4,54.4,30.22,SSE,158,0.0,0.0,90,0.00,,---,0.00,VWS V14.01,2013-04-17 03:22:00,
2013-04-16 23:27:00,57.2,54.2,30.21,SSE,158,0.0,0.0,90,0.00,,---,0.00,VWS V14.01,2013-04-17 03:27:00,
2013-04-16 23:32:00,57.2,54.2,30.21,SSE,158,0.0,0.0,90,0.00,,---,0.00,VWS V14.01,2013-04-17 03:32:00,
2013-04-16 23:37:00,57.2,54.5,30.21,SSE,158,0.0,0.0,91,0.00,,---,0.00,VWS V14.01,2013-04-17 03:37:00,
2013-04-16 23:42:00,57.0,54.3,30.21,SSE,158,0.0,0.0,91,0.00,,---,0.00,VWS V14.01,2013-04-17 03:42:00,
2013-04-16 23:47:00,56.8,54.1,30.21,SSE,158,0.0,0.0,91,0.00,,---,0.00,VWS V14.01,2013-04-17 03:47:00,
2013-04-16 23:52:00,56.8,54.1,30.21,SSE,158,0.0,0.0,91,0.00,,---,0.00,VWS V14.01,2013-04-17 03:52:00,
2013-04-16 23:57:00,56.6,53.9,30.21,SSE,158,0.0,0.0,91,0.00,,---,0.00,VWS V14.01,2013-04-17 03:57:00,